DW3263 Weather Reports


time (UTC)temp
C
wind
direction
speed
KPH
gust
KPH
rain 1hr
cm
rain 24hr
cm
rain mn
cm
humidity
%
barometer
mb
20260508210520 17 248 8.0 17.7 0.00 0.00 0.00 42 1008.9
20260508205520 17 225 3.2 8.0 0.00 0.00 0.00 41 1008.8
20260508204520 17 270 8.0 14.5 0.00 0.00 0.00 42 1009.0
20260508203520 17 315 4.8 9.7 0.00 0.00 0.00 39 1008.9
20260508202520 17 315 8.0 14.5 0.00 0.00 0.00 39 1008.9
20260508201520 17 293 3.2 11.3 0.00 0.03 0.00 42 1009.0
20260508200521 17 293 3.2 9.7 0.00 0.03 0.00 41 1008.9
20260508195520 17 293 3.2 9.7 0.00 0.03 0.00 42 1009.0
20260508194520 17 293 6.4 14.5 0.00 0.03 0.00 41 1009.0
20260508193518 18 248 4.8 12.9 0.00 0.03 0.00 41 1009.0
20260508192520 18 270 8.0 22.5 0.00 0.03 0.00 40 1009.0
20260508191520 18 248 6.4 14.5 0.00 0.03 0.00 40 1009.1
20260508190734 18 293 3.2 12.9 0.00 0.03 0.00 43 1009.1
20260508185518 17 293 3.2 8.0 0.00 0.03 0.00 46 1009.6
20260508184520 17 293 4.8 9.7 0.00 0.03 0.00 44 1009.7
20260508183732 17 293 9.7 25.7 0.00 0.03 0.00 42 1009.8
20260508182519 16 293 4.8 8.0 0.00 0.03 0.00 48 1009.9
20260508181521 16 225 8.0 16.1 0.00 0.03 0.00 47 1009.9
20260508180734 17 203 6.4 11.3 0.00 0.03 0.00 46 1009.9
20260508175520 17 203 9.7 22.5 0.00 0.03 0.00 48 1010.1
20260508174731 16 270 8.0 19.3 0.00 0.03 0.00 49 1010.3
20260508173520 16 203 6.4 17.7 0.00 0.03 0.00 49 1010.5
20260508172733 16 270 9.7 20.9 0.00 0.03 0.00 47 1010.3
20260508171518 16 225 11.3 22.5 0.00 0.05 0.00 47 1010.4
20260508170520 16 248 12.9 22.5 0.00 0.05 0.00 47 1010.5
20260508165944 16 203 11.3 29.0 0.00 0.05 0.00 47 1010.5
20260508164519 15 270 11.3 24.1 0.00 0.05 0.00 46 1010.6
20260508163520 16 270 9.7 22.5 0.00 0.05 0.00 46 1010.8
20260508162520 16 225 14.5 32.2 0.00 0.05 0.00 45 1010.7
20260508161520 16 248 12.9 25.7 0.00 0.05 0.00 47 1011.0
20260508160519 15 225 11.3 20.9 0.00 0.05 0.00 47 1011.1
20260508155520 15 270 8.0 14.5 0.00 0.05 0.00 47 1011.2
20260508154518 15 225 8.0 16.1 0.00 0.05 0.00 49 1011.4
20260508153520 15 225 8.0 19.3 0.00 0.05 0.00 50 1011.3
20260508152520 15 225 8.0 20.9 0.00 0.05 0.00 50 1011.4
20260508151730 15 225 11.3 20.9 0.00 0.05 0.00 51 1011.3
20260508150518 15 203 9.7 20.9 0.00 0.05 0.00 51 1011.6
20260508145520 15 225 8.0 17.7 0.00 0.05 0.00 54 1011.5
20260508144733 14 293 9.7 22.5 0.00 0.05 0.00 52 1011.7
20260508143519 14 225 11.3 24.1 0.00 0.05 0.00 54 1011.8
20260508142520 13 293 9.7 19.3 0.00 0.05 0.00 57 1011.9
20260508141519 13 225 8.0 14.5 0.00 0.05 0.00 58 1011.9
20260508140732 13 203 8.0 19.3 0.00 0.05 0.00 56 1012.0
20260508135518 13 203 8.0 22.5 0.00 0.05 0.00 58 1012.0
20260508134519 12 225 6.4 12.9 0.00 0.05 0.00 58 1012.2
20260508133518 12 225 9.7 19.3 0.00 0.05 0.00 58 1012.2
20260508132519 11 225 8.0 22.5 0.00 0.05 0.00 59 1012.4
20260508131521 10 248 6.4 20.9 0.00 0.05 0.00 62 1012.5
20260508130733 9 293 4.8 9.7 0.00 0.05 0.00 64 1012.6
20260508125942 8 315 1.6 9.7 0.00 0.05 0.00 21 1012.6
20260508124518 8 0.0 0.0 0.00 0.05 0.00 100 1012.5
20260508123520 8 0.0 0.0 0.00 0.05 0.00 100 1012.5
20260508122519 8 0.0 0.0 0.00 0.05 0.00 100 1012.5
20260508121519 7 0.0 0.0 0.00 0.08 0.00 100 1012.5
20260508120518 7 0.0 0.0 0.00 0.08 0.00 100 1012.3
20260508115519 6 0.0 0.0 0.00 0.08 0.00 100 1012.4
20260508115156 6 0.0 0.0 0.00 0.08 0.00 100 1012.2
20260508113519 6 0.0 0.0 0.00 0.08 0.00 100 1012.2
20260508112519 5 0.0 0.0 0.00 0.08 0.00 100 1012.1
20260508111941 5 0.0 0.0 0.00 0.08 0.00 100 1012.0
20260508110942 5 0.0 0.0 0.00 0.08 0.00 100 1011.9
20260508105730 3 0.0 0.0 0.00 0.08 0.00 100 1011.7
20260508104519 3 0.0 0.0 0.00 0.08 0.00 100 1011.5
20260508103731 3 0.0 0.0 0.00 0.08 0.00 100 1011.6
20260508102518 3 0.0 0.0 0.00 0.08 0.00 100 1011.7
20260508101519 3 0.0 0.0 0.00 0.08 0.00 100 1011.4
20260508100519 3 0.0 0.0 0.00 0.08 0.00 100 1011.2
20260508095943 3 0.0 0.0 0.00 0.08 0.00 100 1011.3
20260508094519 3 0.0 0.0 0.00 0.08 0.00 100 1011.2
20260508093732 4 0.0 0.0 0.00 0.08 0.00 100 1011.4
20260508092519 4 0.0 0.0 0.00 0.08 0.00 100 1011.3
20260508091519 4 0.0 0.0 0.00 0.08 0.00 100 1011.4
20260508090730 4 0.0 0.0 0.00 0.08 0.00 100 1011.3
20260508085519 4 0.0 0.0 0.00 0.08 0.00 7 1011.2
20260508084519 5 0.0 0.0 0.00 0.08 0.00 14 1011.3
20260508083519 5 0.0 0.0 0.00 0.08 0.00 25 1011.2
20260508082519 5 0.0 0.0 0.00 0.08 0.00 36 1011.0
20260508081519 6 0.0 1.6 0.00 0.08 0.00 38 1011.1
20260508080731 6 315 1.6 3.2 0.00 0.08 0.00 47 1011.1
20260508075519 6 0.0 0.0 0.00 0.08 0.00 54 1011.0
20260508074519 6 0.0 3.2 0.00 0.08 0.00 59 1011.1
20260508073519 7 0.0 0.0 0.00 0.08 0.00 65 1011.1
20260508072519 8 315 1.6 6.4 0.00 0.08 0.00 65 1011.1
20260508071519 8 315 1.6 4.8 0.00 0.08 0.00 65 1011.0
20260508070519 8 315 1.6 4.8 0.00 0.08 0.00 65 1011.1
20260508065732 8 315 1.6 4.8 0.00 0.08 0.00 65 1010.9
20260508064519 8 0.0 3.2 0.00 0.08 0.00 65 1011.0
20260508063519 8 315 1.6 3.2 0.00 0.10 0.00 64 1010.9
20260508062519 9 0.0 1.6 0.00 0.10 0.00 62 1011.0
20260508061519 10 315 1.6 4.8 0.00 0.10 0.00 61 1010.9
20260508060519 10 315 1.6 8.0 0.00 0.10 0.00 60 1010.9
20260508055519 10 315 4.8 9.7 0.00 0.10 0.00 60 1010.8
20260508054942 10 315 4.8 9.7 0.00 0.10 0.00 59 1010.8
20260508053730 10 315 4.8 8.0 0.00 0.10 0.00 59 1010.8
20260508052519 11 315 6.4 11.3 0.00 0.10 0.00 58 1010.8
20260508051519 11 315 6.4 16.1 0.00 0.10 0.00 57 1010.7
20260508050519 11 315 6.4 11.3 0.00 0.10 0.00 57 1010.7
20260508045519 11 315 6.4 14.5 0.00 0.10 0.00 56 1010.5
20260508044519 11 315 6.4 11.3 0.00 0.10 0.00 55 1010.5
20260508043519 12 315 6.4 14.5 0.00 0.10 0.00 54 1010.3
20260508042519 12 293 6.4 12.9 0.00 0.10 0.00 53 1010.2
20260508041519 12 315 8.0 17.7 0.00 0.10 0.00 53 1010.0
20260508040733 12 315 4.8 14.5 0.00 0.10 0.00 53 1009.9
20260508035518 12 315 8.0 22.5 0.00 0.10 0.10 52 1009.7
20260508034520 12 293 9.7 20.9 0.00 0.10 0.10 52 1009.5
20260508033520 12 315 4.8 11.3 0.00 0.10 0.10 54 1009.2
20260508032519 12 315 4.8 9.7 0.00 0.10 0.10 56 1009.0
20260508031520 11 315 3.2 6.4 0.00 0.10 0.10 61 1008.8
20260508030734 11 315 1.6 4.8 0.00 0.10 0.10 60 1008.7
20260508025519 12 0.0 1.6 0.00 0.10 0.10 58 1008.6
20260508024519 12 0.0 3.2 0.00 0.10 0.10 54 1008.6
20260508023520 12 0.0 3.2 0.00 0.10 0.10 52 1008.4
20260508022520 12 0.0 0.0 0.00 0.10 0.10 53 1008.4
20260508021518 13 0.0 0.0 0.00 0.10 0.10 53 1008.3
20260508020519 13 0.0 3.2 0.00 0.10 0.10 51 1008.2
20260508015520 13 0.0 0.0 0.00 0.10 0.10 51 1008.2
20260508014731 13 0.0 1.6 0.00 0.10 0.10 52 1008.1
20260508013518 13 315 1.6 3.2 0.00 0.10 0.10 50 1008.0
20260508012733 14 0.0 3.2 0.00 0.10 0.10 48 1007.9
20260508011519 14 0.0 3.2 0.00 0.10 0.10 47 1007.7
20260508010730 15 315 1.6 4.8 0.00 0.10 0.10 45 1007.6
20260508005518 15 315 3.2 6.4 0.00 0.10 0.10 44 1007.5
20260508004519 15 315 1.6 4.8 0.00 0.10 0.10 44 1007.4
20260508003728 15 315 3.2 8.0 0.00 0.13 0.10 43 1007.3
20260508002519 15 315 3.2 8.0 0.00 0.13 0.10 44 1007.2
20260508001520 15 315 4.8 11.3 0.00 0.13 0.10 42 1007.0
20260508000519 15 315 6.4 12.9 0.00 0.13 0.10 43 1007.0
20260507235519 15 315 3.2 9.7 0.00 0.13 0.10 43 1007.0
20260507234519 16 315 1.6 4.8 0.00 0.13 0.10 41 1006.9
20260507233519 16 315 3.2 4.8 0.00 0.13 0.10 40 1006.8
20260507232520 16 315 3.2 6.4 0.00 0.13 0.10 40 1006.8
20260507231519 16 315 4.8 8.0 0.00 0.13 0.10 39 1006.6
20260507230731 16 315 6.4 12.9 0.00 0.13 0.10 37 1006.5
20260507225518 17 315 3.2 8.0 0.00 0.13 0.10 38 1006.4
20260507224733 17 315 4.8 12.9 0.00 0.13 0.10 37 1006.4
20260507223518 17 315 4.8 12.9 0.00 0.13 0.10 36 1006.3
20260507222519 17 315 6.4 11.3 0.00 0.13 0.10 36 1006.3
20260507221518 17 293 8.0 14.5 0.00 0.13 0.10 36 1006.3
20260507220519 18 293 9.7 19.3 0.00 0.13 0.10 35 1006.2
20260507215519 18 270 3.2 9.7 0.00 0.13 0.10 34 1006.0
20260507214518 17 270 4.8 12.9 0.00 0.13 0.10 37 1006.2
20260507213519 18 338 3.2 8.0 0.00 0.13 0.10 35 1006.2
20260507212519 18 338 4.8 11.3 0.00 0.13 0.10 35 1006.1
20260507211731 17 270 8.0 19.3 0.03 0.13 0.10 36 1006.2